Regional Weather Roundup
Issued by NWS Nashville, TN

Home | Current Version | Previous Version | Text Only | Print | Product List | Glossary On
Versions: 1 2 3 4 5 6 7 8 9 10 11 12 13 14 15 16 17 18 19 20 21 22 23 24 25 26 27 28 29 30 31 32 33 34 35 36 37 38 39 40 41 42 43 44 45 46 47 48 49 50
000
ASUS44 KOHX 310515
RWROHX
MIDDLE TENNESSEE HOURLY WEATHER ROUNDUP
NATIONAL WEATHER SERVICE NASHVILLE TN
1200 AM CDT FRI OCT 31 2014

NOTE: "FAIR" INDICATES FEW OR NO CLOUDS BELOW 12,000 FEET WITH
NO SIGNIFICANT WEATHER AND/OR OBSTRUCTIONS TO VISIBILITY.

* THESE REPORTS ARE NOT UNDER NWS QUALITY CONTROL AND MAY NOT
  REPORT WEATHER SUCH AS PRECIPITATION AND FOG.


TNZ005>011-023>034-057-059-062>066-078-080-310600
...NORTHERN MIDDLE TENNESSEE...

CITY           SKY/WX    TMP DP  RH WIND       PRES   REMARKS
CLARKSVILLE    LGT RAIN  51  44  77 CALM      30.03F
CROSSVILLE     CLEAR     40  36  86 CALM      30.02F
GALLATIN         N/A     45  44  96 CALM      30.05S
DICKSON        CLOUDY    52  39  62 CALM      30.03S
NASHVILLE      CLOUDY    49  44  83 CALM      30.05S
WEST NASHVILLE   N/A     48  48 100 S3        30.04F
PORTLAND       CLOUDY    43  41  93 CALM      30.03F
ROCKWOOD       MOCLDY    46  37  70 N5        30.00F
SMYRNA         CLOUDY    46  44  93 CALM      30.05S
SPARTA         PTCLDY    39  39 100 CALM      30.02F
$$
TNZ056-058-060-061-075>077-079-093>097-310600
...SOUTHERN MIDDLE TENNESSEE...

CITY           SKY/WX    TMP DP  RH WIND       PRES   REMARKS
COLUMBIA       MOCLDY    48  48 100 CALM      30.02S
FAYETTEVILLE   PTCLDY    46  37  71 N16G56    30.02S
MCMINNVILLE    MOCLDY    39  39 100 CALM      30.02F
MURFREESBORO   CLOUDY    45  42  89 CALM      30.04R
SHELBYVILLE    CLOUDY    43  43 100 CALM      30.04S
TULLAHOMA      CLEAR     39  36  87 CALM      30.03S
WINCHESTER     CLEAR     39  37  93 CALM      30.02F
$$


...KEY TO REMARKS...
VSB - VISIBILITY IN MILES
WCI - WIND CHILL INDEX
HX  - HEAT INDEX




USA.gov is the U.S. government's official web portal to all federal, state and local government web resources and services.